Flag for Angola Weather past 2 weeks in Luanda, Angola

Now
73 °F

Scattered clouds.


Feels Like: 76 °F
Forecast: 65 / 74 °F
Wind: 5 mph from West

Location: Luanda Airport

Current Time: Aug 1, 2015 at 11:41:44 AM

Latest Report: Aug 1, 2015 at 11:00 AM


Visibility: 6 mi

Pressure: 30.04 "Hg

Humidity: 69%

Dew point: 63 °F

Location of LuandaLocation

Historic Weather in Luanda — Graph

°F

Luanda temperature yesterday

Maximum temperature yesterday: 73 °F (at 1:00 PM)
Minimum temperature yesterday: 64 °F (at 1:00 AM)
Average temperature yesterday: 68 °F

Past Weeks' High & Low Weather Summary

 TemperatureHumidityPressure
High81 °F (Jul 23, 1:00 PM)94% (Jul 18, 6:00 AM)30.09 "Hg (Jul 18, 6:00 AM)
Low64 °F (Jul 31, 1:00 AM)54% (Jul 23, 1:00 PM)29.92 "Hg (Jul 17, 3:00 PM)
Average70 °F83%30.01 "Hg
* Reported Jul 17 10:00 AM — Aug 1 10:00 AM, Luanda, Weather by CustomWeather, © 2015

Note: Actual official high and low records may vary slightly from our data, if they occured in-between our weather recording intervals... More about our weather records

Advertising

Luanda weather history for previous 24 hours

 ConditionsComfort  
Time TempWeatherWind HumidityBarometerVisibility
10:00 AM
Sat, Aug 1
72 °FScattered clouds.5 mph73%30.07 "Hg6 mi
9:00 AM70 °FScattered clouds.2 mph78%30.04 "Hg6 mi
8:00 AM66 °FScattered clouds.3 mph88%30.04 "Hg6 mi
7:00 AM64 °FBroken clouds.3 mph94%30.01 "HgN/A
6:00 AM64 °FPassing clouds.3 mph94%30.01 "HgN/A
5:00 AM64 °FPassing clouds.5 mph94%29.98 "HgN/A
4:00 AM64 °FPassing clouds.6 mph94%29.98 "HgN/A
3:00 AM64 °FPassing clouds.6 mph94%29.98 "HgN/A
2:00 AM64 °FPassing clouds.3 mph94%29.98 "HgN/A
1:00 AM64 °FPassing clouds.5 mph94%30.01 "HgN/A
12:00 AM64 °FPassing clouds.6 mph94%30.01 "HgN/A
11:00 PM
Fri, Jul 31
66 °FPassing clouds.7 mph88%30.04 "HgN/A
10:00 PM66 °FPassing clouds.9 mph88%30.04 "HgN/A
9:00 PM66 °FPassing clouds.7 mph88%30.01 "HgN/A
8:00 PM68 °FClear.6 mph83%29.98 "Hg10 mi
7:00 PM68 °FClear.6 mph88%29.98 "Hg10 mi
6:00 PM70 °FSunny.9 mph78%29.95 "Hg10 mi
5:00 PM70 °FSunny.7 mph78%29.92 "Hg10 mi
3:00 PM73 °FPassing clouds.9 mph69%29.95 "HgN/A
2:00 PM73 °FScattered clouds.9 mph69%29.98 "HgN/A
1:00 PM73 °FPartly sunny.9 mph69%30.01 "HgN/A
12:00 PM72 °FBroken clouds.7 mph78%30.01 "HgN/A
Weather by CustomWeather, © 2015

See weather overviewHow to use our weather pages